When you browse on this site, cookies collect data to enhance your experience and personalize the content and advertising you see.
Visit our Privacy Policy to learn more. By continuing to use the site, you agree to this use of cookies and data.
  • In Portugal
  • List of Countries
  • For 7 days
  • Water Temperature
  • Satellite Maps
  • Weather Map
  • Weather Widgets
  • user-avatar
    Login

    Hourly Weather Speshnevo

    Today, 20 February, Wednesday

    Time Temperature Precipitation Wind Pressure Humidity
    00:00 -10°C° 0 mm 6 mps 736 mmHg 85%
    01:00 -10°C° 0 mm 6 mps 735 mmHg 86%
    02:00 -9°C° 0 mm 6 mps 734 mmHg 86%
    03:00 -9°C° 0 mm 6 mps 734 mmHg 86%
    04:00 -9°C° 0 mm 6 mps 733 mmHg 87%
    05:00 -9°C° 0 mm 7 mps 733 mmHg 87%
    06:00 -8°C° 0 mm 7 mps 732 mmHg 89%
    07:00 -8°C° 0 mm 7 mps 732 mmHg 90%
    08:00 -8°C° 0 mm 7 mps 732 mmHg 92%
    09:00 -7°C° 0 mm 7 mps 731 mmHg 91%
    10:00 -4°C° 0 mm 7 mps 731 mmHg 91%
    11:00 -3°C° 0 mm 6 mps 731 mmHg 91%
    12:00 -3°C° 0 mm 6 mps 731 mmHg 93%
    13:00 -3°C° 0 mm 6 mps 730 mmHg 95%
    14:00 -3°C° 0 mm 6 mps 730 mmHg 97%
    15:00 -3°C° 0.1 mm 6 mps 730 mmHg 96%
    16:00 -2°C° 0.1 mm 6 mps 730 mmHg 95%
    17:00 -1°C° 0.1 mm 5 mps 730 mmHg 95%
    18:00 -2°C° 0 mm 6 mps 729 mmHg 94%
    19:00 -2°C° 0 mm 6 mps 729 mmHg 94%
    20:00 -2°C° 0 mm 6 mps 729 mmHg 93%
    21:00 -2°C° 0 mm 6 mps 729 mmHg 92%
    22:00 -3°C° 0 mm 6 mps 728 mmHg 91%
    23:00 -3°C° 0 mm 6 mps 728 mmHg 90%

    Tomorrow, 21 February, Thursday

    Time Temperature Precipitation Wind Pressure Humidity
    00:00 -3°C° 0.2 mm 7 mps 727 mmHg 90%
    01:00 -2°C° 0.2 mm 7 mps 727 mmHg 91%
    02:00 -2°C° 0.2 mm 8 mps 726 mmHg 91%
    03:00 -4°C° 0.4 mm 8 mps 726 mmHg 89%
    04:00 -4°C° 0.4 mm 7 mps 726 mmHg 87%
    05:00 -6°C° 0.4 mm 7 mps 725 mmHg 85%
    06:00 -7°C° 0.1 mm 7 mps 726 mmHg 86%
    07:00 -8°C° 0.1 mm 7 mps 726 mmHg 88%
    08:00 -9°C° 0.1 mm 6 mps 726 mmHg 90%
    09:00 -9°C° 0.1 mm 6 mps 727 mmHg 88%
    10:00 -9°C° 0.1 mm 6 mps 727 mmHg 86%
    11:00 -9°C° 0.1 mm 6 mps 727 mmHg 85%
    12:00 -8°C° 0.1 mm 7 mps 727 mmHg 84%
    13:00 -8°C° 0.1 mm 7 mps 728 mmHg 83%
    14:00 -8°C° 0.1 mm 7 mps 728 mmHg 82%
    15:00 -8°C° 0.2 mm 7 mps 728 mmHg 85%
    16:00 -8°C° 0.2 mm 7 mps 728 mmHg 87%
    17:00 -8°C° 0.2 mm 8 mps 728 mmHg 90%
    18:00 -8°C° 0.1 mm 8 mps 729 mmHg 89%
    19:00 -10°C° 0.1 mm 8 mps 729 mmHg 87%
    20:00 -10°C° 0.1 mm 8 mps 730 mmHg 86%
    21:00 -10°C° 0 mm 8 mps 730 mmHg 86%
    22:00 -11°C° 0 mm 7 mps 731 mmHg 87%
    23:00 -12°C° 0 mm 7 mps 731 mmHg 87%

    Day after tomorrow, 22 February, Friday

    Time Temperature Precipitation Wind Pressure Humidity
    00:00 -12°C° 0.1 mm 7 mps 732 mmHg 87%
    01:00 -12°C° 0.1 mm 6 mps 732 mmHg 87%
    02:00 -12°C° 0.1 mm 6 mps 733 mmHg 87%
    03:00 -14°C° 0 mm 6 mps 733 mmHg 87%
    04:00 -15°C° 0 mm 6 mps 733 mmHg 86%
    05:00 -16°C° 0 mm 6 mps 734 mmHg 86%
    06:00 -17°C° 0 mm 6 mps 734 mmHg 86%
    07:00 -17°C° 0 mm 6 mps 734 mmHg 86%
    08:00 -17°C° 0 mm 6 mps 735 mmHg 86%
    09:00 -18°C° 0 mm 7 mps 735 mmHg 83%
    10:00 -17°C° 0 mm 7 mps 736 mmHg 81%
    11:00 -17°C° 0 mm 8 mps 736 mmHg 79%
    12:00 -17°C° 0.1 mm 7 mps 736 mmHg 79%
    13:00 -15°C° 0.1 mm 7 mps 737 mmHg 79%
    14:00 -15°C° 0.1 mm 7 mps 737 mmHg 80%
    15:00 -15°C° 0.1 mm 6 mps 737 mmHg 83%
    16:00 -15°C° 0.1 mm 6 mps 738 mmHg 86%
    17:00 -14°C° 0.1 mm 5 mps 738 mmHg 89%
    18:00 -15°C° 0.1 mm 5 mps 738 mmHg 89%
    19:00 -16°C° 0.1 mm 4 mps 739 mmHg 88%
    20:00 -17°C° 0.1 mm 4 mps 739 mmHg 88%
    21:00 -17°C° 0 mm 4 mps 740 mmHg 89%
    22:00 -18°C° 0 mm 4 mps 740 mmHg 91%
    23:00 -18°C° 0 mm 4 mps 741 mmHg 93%

    23 February, Saturday

    Time Temperature Precipitation Wind Pressure Humidity
    00:00 -18°C° 0 mm 4 mps 741 mmHg 93%
    01:00 -17°C° 0 mm 4 mps 742 mmHg 93%
    02:00 -16°C° 0 mm 4 mps 742 mmHg 93%
    03:00 -17°C° 0 mm 4 mps 743 mmHg 92%
    04:00 -17°C° 0 mm 4 mps 743 mmHg 92%
    05:00 -18°C° 0 mm 4 mps 744 mmHg 91%
    06:00 -18°C° 0 mm 4 mps 744 mmHg 92%
    07:00 -18°C° 0 mm 4 mps 745 mmHg 92%
    08:00 -19°C° 0 mm 4 mps 745 mmHg 92%
    09:00 -18°C° 0 mm 4 mps 745 mmHg 91%
    10:00 -17°C° 0 mm 4 mps 746 mmHg 90%
    11:00 -16°C° 0 mm 4 mps 746 mmHg 88%
    12:00 -16°C° 0 mm 4 mps 746 mmHg 88%
    13:00 -16°C° 0 mm 4 mps 746 mmHg 87%
    14:00 -15°C° 0 mm 4 mps 747 mmHg 87%
    15:00 -15°C° 0 mm 3 mps 747 mmHg 89%
    16:00 -15°C° 0 mm 3 mps 747 mmHg 91%
    17:00 -15°C° 0 mm 2 mps 747 mmHg 93%
    18:00 -15°C° 0 mm 2 mps 747 mmHg 93%
    19:00 -15°C° 0 mm 2 mps 748 mmHg 94%
    20:00 -15°C° 0 mm 2 mps 748 mmHg 95%
    21:00 -15°C° 0 mm 2 mps 748 mmHg 95%
    22:00 -15°C° 0 mm 2 mps 748 mmHg 95%
    23:00 -16°C° 0 mm 2 mps 748 mmHg 95%

    24 February, Sunday

    Time Temperature Precipitation Wind Pressure Humidity
    00:00 -16°C° 0 mm 2 mps 748 mmHg 96%
    01:00 -15°C° 0 mm 1 mps 747 mmHg 96%
    02:00 -16°C° 0 mm 1 mps 747 mmHg 96%
    03:00 -16°C° 0 mm 1 mps 747 mmHg 96%
    04:00 -18°C° 0 mm 2 mps 747 mmHg 95%
    05:00 -19°C° 0 mm 2 mps 747 mmHg 95%
    06:00 -16°C° 0 mm 1 mps 747 mmHg 94%
    07:00 -16°C° 0 mm 1 mps 748 mmHg 93%
    08:00 -16°C° 0 mm 1 mps 748 mmHg 93%
    09:00 -14°C° 0 mm 1 mps 748 mmHg 90%
    10:00 -13°C° 0 mm 1 mps 748 mmHg 87%
    11:00 -12°C° 0 mm 1 mps 748 mmHg 84%
    12:00 -11°C° 0 mm 1 mps 748 mmHg 83%
    13:00 -10°C° 0 mm 1 mps 748 mmHg 82%
    14:00 -10°C° 0 mm 1 mps 748 mmHg 81%
    15:00 -11°C° 0 mm 1 mps 748 mmHg 83%
    16:00 -12°C° 0 mm 1 mps 748 mmHg 85%
    17:00 -14°C° 0 mm 0 mps 748 mmHg 87%
    18:00 -14°C° 0 mm 0 mps 748 mmHg 86%
    19:00 -15°C° 0 mm 0 mps 748 mmHg 85%
    20:00 -15°C° 0 mm 0 mps 748 mmHg 84%
    21:00 -16°C° 0 mm 0 mps 748 mmHg 83%
    22:00 -16°C° 0 mm 0 mps 748 mmHg 82%
    23:00 -16°C° 0 mm 0 mps 748 mmHg 81%

    25 February, Monday

    Time Temperature Precipitation Wind Pressure Humidity
    00:00 -16°C° 0 mm 0 mps 748 mmHg 82%
    01:00 -16°C° 0 mm 0 mps 748 mmHg 82%
    02:00 -16°C° 0 mm 0 mps 748 mmHg 83%
    03:00 -16°C° 0 mm 0 mps 747 mmHg 85%
    04:00 -16°C° 0 mm 0 mps 747 mmHg 88%
    05:00 -15°C° 0 mm 0 mps 747 mmHg 91%
    06:00 -15°C° 0 mm 1 mps 746 mmHg 91%
    07:00 -14°C° 0 mm 1 mps 746 mmHg 92%
    08:00 -13°C° 0 mm 1 mps 746 mmHg 92%
    09:00 -11°C° 0 mm 1 mps 746 mmHg 92%
    10:00 -12°C° 0 mm 2 mps 745 mmHg 92%
    11:00 -9°C° 0 mm 2 mps 745 mmHg 92%
    12:00 -8°C° 0 mm 2 mps 744 mmHg 93%
    13:00 -8°C° 0 mm 2 mps 743 mmHg 93%
    14:00 -7°C° 0 mm 2 mps 743 mmHg 94%
    15:00 -9°C° 0 mm 3 mps 742 mmHg 95%
    16:00 -10°C° 0 mm 3 mps 741 mmHg 95%
    17:00 -10°C° 0 mm 3 mps 741 mmHg 96%
    18:00 -10°C° 0 mm 3 mps 740 mmHg 96%
    19:00 -8°C° 0 mm 2 mps 740 mmHg 96%
    20:00 -8°C° 0 mm 2 mps 739 mmHg 97%
    21:00 -7°C° 0.1 mm 2 mps 739 mmHg 97%
    22:00 -6°C° 0.1 mm 2 mps 739 mmHg 97%
    23:00 -5°C° 0.1 mm 2 mps 738 mmHg 97%
    Show more